TimeEDT,TemperatureF,Dew PointF,Humidity,Sea Level PressureIn,VisibilityMPH,Wind Direction,Wind SpeedMPH,Gust SpeedMPH,PrecipitationIn,Events,Conditions,WindDirDegrees,DateUTC
12:47 AM,55.4,53.6,94,30.28,1.5,Calm,Calm,-,N/A,,Partly Cloudy,0,2013-04-26 04:47:00
12:53 AM,55.0,53.1,93,30.27,1.5,Calm,Calm,-,N/A,,Scattered Clouds,0,2013-04-26 04:53:00
12:58 AM,55.4,53.6,94,30.28,3.0,Calm,Calm,-,N/A,,Scattered Clouds,0,2013-04-26 04:58:00
1:10 AM,55.4,53.6,94,30.28,2.5,Calm,Calm,-,N/A,,Partly Cloudy,0,2013-04-26 05:10:00
1:17 AM,53.6,51.8,94,30.28,1.0,Calm,Calm,-,N/A,,Mist,0,2013-04-26 05:17:00
1:25 AM,51.8,51.8,100,30.28,0.5,Calm,Calm,-,N/A,Fog,Fog,0,2013-04-26 05:25:00
1:32 AM,51.8,51.8,100,30.28,0.2,Calm,Calm,-,N/A,Fog,Fog,0,2013-04-26 05:32:00
1:53 AM,52.0,51.1,97,30.27,0.2,Calm,Calm,-,N/A,Fog,Fog,0,2013-04-26 05:53:00
2:04 AM,51.8,51.8,100,30.28,1.2,NNE,3.5,-,N/A,,Overcast,30,2013-04-26 06:04:00
2:06 AM,51.8,50.0,94,30.28,3.0,NNE,3.5,-,N/A,,Mostly Cloudy,30,2013-04-26 06:06:00
2:15 AM,51.8,50.0,94,30.28,0.8,NE,3.5,-,N/A,,Mist,50,2013-04-26 06:15:00
2:27 AM,51.8,51.8,100,30.28,2.0,ENE,3.5,-,N/A,,Scattered Clouds,70,2013-04-26 06:27:00
2:35 AM,51.8,51.8,100,30.28,1.0,Calm,Calm,-,N/A,,Mist,0,2013-04-26 06:35:00
2:43 AM,51.8,50.0,94,30.28,3.0,Calm,Calm,-,N/A,,Mostly Cloudy,0,2013-04-26 06:43:00
3:40 AM,53.6,51.8,94,30.28,1.8,Calm,Calm,-,N/A,,Mostly Cloudy,0,2013-04-26 07:40:00
3:45 AM,53.6,51.8,94,30.28,0.8,Calm,Calm,-,N/A,,Mist,0,2013-04-26 07:45:00
3:53 AM,53.1,52.0,96,30.27,0.5,Calm,Calm,-,N/A,Fog,Fog,0,2013-04-26 07:53:00
4:09 AM,51.8,51.8,100,30.29,2.5,Calm,Calm,-,N/A,,Partly Cloudy,0,2013-04-26 08:09:00
4:20 AM,50.0,50.0,100,30.29,1.0,Calm,Calm,-,N/A,,Mist,0,2013-04-26 08:20:00
4:25 AM,50.0,50.0,100,30.29,0.2,NE,3.5,-,N/A,Fog,Fog,50,2013-04-26 08:25:00
4:46 AM,48.2,48.2,100,30.30,1.0,NNE,3.5,-,N/A,,Mist,20,2013-04-26 08:46:00
4:49 AM,48.2,48.2,100,30.30,3.0,NNE,3.5,-,N/A,,Mostly Cloudy,20,2013-04-26 08:49:00
4:53 AM,48.9,48.0,97,30.29,1.8,North,3.5,-,N/A,,Scattered Clouds,10,2013-04-26 08:53:00
5:04 AM,48.2,48.2,100,30.31,0.8,NNE,4.6,-,N/A,,Mist,20,2013-04-26 09:04:00
5:19 AM,48.2,48.2,100,30.31,1.2,NNE,4.6,-,N/A,,Partly Cloudy,20,2013-04-26 09:19:00
5:41 AM,50.0,50.0,100,30.31,3.0,Calm,Calm,-,0.01,,Clear,0,2013-04-26 09:41:00
5:53 AM,50.0,48.9,96,30.30,5.0,Calm,Calm,-,0.01,,Clear,0,2013-04-26 09:53:00
6:01 AM,48.2,48.2,100,30.33,1.8,North,6.9,-,N/A,,Partly Cloudy,10,2013-04-26 10:01:00
6:04 AM,46.4,44.6,93,30.33,0.8,North,6.9,-,N/A,,Mist,10,2013-04-26 10:04:00
6:21 AM,48.2,48.2,100,30.33,2.5,NNE,5.8,-,N/A,,Mostly Cloudy,30,2013-04-26 10:21:00
6:28 AM,50.0,48.2,94,30.33,5.0,NNE,4.6,-,N/A,,Overcast,30,2013-04-26 10:28:00
6:45 AM,48.2,48.2,100,30.34,6.0,NE,4.6,-,N/A,,Scattered Clouds,40,2013-04-26 10:45:00
6:53 AM,50.0,48.9,96,30.33,7.0,NE,3.5,-,N/A,,Mostly Cloudy,50,2013-04-26 10:53:00
7:26 AM,51.8,48.2,88,30.36,8.0,NE,3.5,-,N/A,,Overcast,50,2013-04-26 11:26:00
7:53 AM,52.0,48.9,89,30.36,8.0,NE,4.6,-,N/A,,Overcast,50,2013-04-26 11:53:00
8:53 AM,55.0,51.1,86,30.39,10.0,NNE,3.5,-,N/A,,Overcast,30,2013-04-26 12:53:00
9:22 AM,59.0,51.8,77,30.40,10.0,NE,8.1,-,N/A,,Mostly Cloudy,50,2013-04-26 13:22:00
9:53 AM,61.0,50.0,67,30.39,10.0,NNE,11.5,-,N/A,,Clear,20,2013-04-26 13:53:00
10:53 AM,66.0,46.0,48,30.40,10.0,Variable,6.9,-,N/A,,Clear,0,2013-04-26 14:53:00
11:53 AM,68.0,43.0,40,30.40,10.0,NNE,11.5,16.1,N/A,,Clear,30,2013-04-26 15:53:00
12:53 PM,70.0,39.9,33,30.37,10.0,Variable,4.6,-,N/A,,Clear,0,2013-04-26 16:53:00
1:53 PM,72.0,37.0,28,30.36,10.0,Variable,6.9,-,N/A,,Clear,0,2013-04-26 17:53:00
2:53 PM,73.0,33.1,23,30.35,10.0,Variable,3.5,-,N/A,,Clear,0,2013-04-26 18:53:00
3:53 PM,75.0,35.1,23,30.32,10.0,North,4.6,-,N/A,,Clear,360,2013-04-26 19:53:00
4:53 PM,73.9,35.1,24,30.31,10.0,NE,6.9,-,N/A,,Clear,50,2013-04-26 20:53:00
5:53 PM,73.0,34.0,24,30.30,10.0,Variable,5.8,-,N/A,,Clear,0,2013-04-26 21:53:00
6:53 PM,69.1,37.9,32,30.30,10.0,ENE,4.6,-,N/A,,Clear,70,2013-04-26 22:53:00
7:53 PM,64.9,41.0,42,30.32,10.0,NE,3.5,-,N/A,,Clear,50,2013-04-26 23:53:00
8:53 PM,63.0,39.9,43,30.34,10.0,Calm,Calm,-,N/A,,Clear,0,2013-04-27 00:53:00
9:53 PM,62.1,41.0,46,30.36,10.0,ESE,5.8,-,N/A,,Clear,120,2013-04-27 01:53:00
10:53 PM,59.0,41.0,51,30.36,10.0,SSE,8.1,-,N/A,,Scattered Clouds,150,2013-04-27 02:53:00
11:53 PM,55.9,39.9,55,30.36,10.0,SSE,3.5,-,N/A,,Clear,150,2013-04-27 03:53:00